Location: Favalello
(42.2939°N, 9.2706°E)
Time: 02:26:24
(UTC+00:00)

USA 215 - Pass Details

Date: 06 December 2019
Orbit: 1099 x 1109 km, 123.0° (Epoch: 20 January)

Event Time Altitude Azimuth Distance (km) Brightness Sun altitude
Exits shadow 16:41:19 - 43° (NE) 3,180 5.1 -9.3°
Reaches altitude 10° 16:41:56 10° 40° (NE) 2,965 5.0 -9.4°
Maximum altitude 16:47:49 37° 336° (NNW) 1,638 4.2 -10.4°
Drops below altitude 10° 16:53:42 10° 272° (W) 2,964 6.7 -11.4°
Sets 16:56:22 0° 264° (W) 3,922 7.9 -11.9°
